Regional Weather Roundup
Issued by NWS State College, PA

Home | Current Version | Previous Version | Graphics & Text | Print | Product List | Glossary On
Versions: 1 2 3 4 5 6 7 8 9 10 11 12 13 14 15 16 17 18 19 20 21 22 23 24 25 26 27 28 29 30 31 32 33 34 35 36 37 38 39 40 41 42 43 44 45 46 47 48 49 50
000
ASUS41 KCTP 251903
RWRCTP

REGIONAL WEATHER ROUNDUP
NATIONAL WEATHER SERVICE STATE COLLEGE PA
300 PM EDT MON MAY 25 2015

Note: "fair" indicates few or no clouds below 12,000 feet with no
significant weather and/or obstructions to visibility.

* = STATION THAT DOES NOT REPORT PRECIPITATION /E.G. RAIN...SNOW...ETC/
    THUNDER OR FOG.

PAZ002>004-007>009-013>016-020>023-029>032-252000-
WESTERN PENNSYLVANIA

CITY           SKY/WX    TMP DP  RH WIND       PRES   REMARKS
ERIE           PTSUNNY   82  59  45 S16G29    30.04F
MEADVILLE      MOSUNNY   80  59  48 S13G23    30.10F
FRANKLIN*      PTSUNNY   79  57  47 S14       30.15F
NEW CASTLE     FAIR      85  62  45 S16G23    30.12F
BEAVER COUNTY  NOT AVBL
BUTLER*        MOSUNNY   82  57  42 SW13G23   30.16F
PITTSBURGH INT PTSUNNY   82  57  42 S14G21    30.14F
PITTSBURGH     MOSUNNY   82  54  37 S12       30.15F
INDIANA*       SUNNY     82  57  42 SW10G22   30.20F
LATROBE        MOSUNNY   82  57  42 SW17      30.18F
WASHINGTON CO* MOSUNNY   81  61  50 SW9       30.18F
$$

PAZ004>006-010>012-017>019-024>028-033>037-041-042-045-046-049>053-252000-
CENTRAL PENNSYLVANIA

CITY           SKY/WX    TMP DP  RH WIND       PRES   REMARKS
BRADFORD       CLOUDY    77  55  46 SW8G22    30.16F
DUBOIS         MOSUNNY   82  55  39 SW12G25   30.16F
CLEARFIELD     MOSUNNY   82  53  36 SW13G20   30.16F
JOHNSTOWN      MOSUNNY   80  50  34 S13G18    30.20F
ALTOONA        PTSUNNY   84  55  36 S12       30.18F
STATE COLLEGE  MOSUNNY   84  55  37 S8G17     30.15F
WILLIAMSPORT   MOSUNNY   85  56  37 S9G21     30.11F
SELINSGROVE    SUNNY     83  54  36 SW9G21    30.16S
FT INDIANTOWN  MOSUNNY   85  57  38 SW16      30.17F
CAPITAL CITY   MOSUNNY   84  56  38 S12       30.17F
HARRISBURG     PTSUNNY   83  56  39 SW8       30.17F
YORK           MOSUNNY   81  58  45 SW12G21   30.19F
$$

PAZ038>040-043-044-047-048-054-055-060>062-067>071-252000-
EASTERN PENNSYLVANIA

CITY           SKY/WX    TMP DP  RH WIND       PRES   REMARKS
SCRANTON       MOSUNNY   87  53  31 S12G23    30.13F
MOUNT POCONO   MOSUNNY   81  48  31 SW18G24   30.22F
ALLENTOWN      SUNNY     88  51  28 SW10G26   30.16F
QUAKERTOWN*    CLEAR     84  55  37 S13G20    30.20F
READING        SUNNY     88  54  31 SW16      30.16F
LANCASTER      SUNNY     86  58  38 S13G24    30.18F
COATESVILLE    CLEAR     81  61  50 S10G17    30.22F
POTTSTOWN      SUNNY     84  53  34 S13G21    30.21F
BLUE BELL      SUNNY     88  57  35 S16       30.19F
DOYLESTOWN     SUNNY     84  54  35 S9G23     30.18F
WILLOW GROVE   NOT AVBL
NORTH PHILA    SUNNY     87  52  29 SW18G25   30.21F
PHILADELPHIA   PTSUNNY   86  55  34 SW17G28   30.21F
$$


USA.gov is the U.S. government's official web portal to all federal, state and local government web resources and services.